Flag for U.S.A. Weather past 2 weeks in Huntington Beach, California, U.S.A.

Now
70 °F

Passing clouds.


Feels Like: 77 °F
Forecast: 56 / 71 °F
Wind: 10 mph from Southwest

Location: John Wayne Airport-Orange County Airport

Current Time: Apr 1, 2015 at 2:34:29 PM

Latest Report: Apr 1, 2015 at 1:53 PM


Visibility: 10 mi

Pressure: 29.96 "Hg

Humidity: 55%

Dew point: 53 °F

Location of Huntington BeachLocation

Historic Weather in Huntington Beach — Graph

°F

Huntington Beach temperature yesterday

Maximum temperature yesterday: 68 °F (at 11:53 AM)
Minimum temperature yesterday: 59 °F (at 1:53 AM)
Average temperature yesterday: 63 °F

Past Weeks' High & Low Weather Summary

 TemperatureHumidityPressure
High87 °F (Mar 26, 11:53 AM)94% (Mar 30, 4:02 AM)30.19 "Hg (Mar 30, 4:02 AM)
Low57 °F (Mar 30, 4:53 AM)16% (Mar 26, 4:53 PM)29.89 "Hg (Mar 17, 2:53 PM)
Average65 °F68%30.03 "Hg
* Reported Mar 17 12:53 PM — Apr 1 12:53 PM, Huntington Beach, Weather by CustomWeather, © 2015

Note: Actual official high and low records may vary slightly from our data, if they occured in-between our weather recording intervals... More about our weather records

Advertising

Huntington Beach weather history for previous 24 hours

 ConditionsComfort  
Time TempWeatherWind HumidityBarometerVisibility
12:53 PM
Wed, Apr 1
69 °FPassing clouds.10 mph57%29.98 "Hg10 mi
11:53 AM70 °FScattered clouds.No wind49%29.98 "Hg10 mi
10:53 AM67 °FScattered clouds.6 mph55%30.01 "Hg10 mi
10:03 AM64 °FMostly cloudy.5 mph60%30.02 "Hg10 mi
9:53 AM65 °FOvercast.5 mph61%30.03 "Hg10 mi
8:53 AM62 °FOvercast.5 mph67%30.01 "Hg10 mi
7:53 AM61 °FPartly sunny.5 mph67%29.98 "Hg10 mi
6:53 AM60 °FOvercast.7 mph72%29.97 "Hg10 mi
5:53 AM60 °FOvercast.5 mph78%29.96 "Hg10 mi
4:53 AM61 °FOvercast.6 mph75%29.96 "Hg10 mi
3:53 AM61 °FPassing clouds.No wind78%29.98 "Hg10 mi
2:53 AM61 °FOvercast.3 mph78%29.98 "Hg10 mi
1:53 AM61 °FOvercast.5 mph78%29.99 "Hg10 mi
12:53 AM59 °FClear.3 mph81%29.98 "Hg10 mi
11:53 PM
Tue, Mar 31
61 °FClear.No wind78%29.97 "Hg10 mi
10:53 PM61 °FClear.3 mph78%29.97 "Hg10 mi
9:53 PM61 °FPassing clouds.6 mph78%29.98 "Hg10 mi
8:53 PM62 °FPassing clouds.5 mph78%29.98 "Hg10 mi
7:53 PM64 °FPassing clouds.13 mph94%29.96 "Hg10 mi
6:53 PM64 °FScattered clouds.16 mph88%29.94 "Hg10 mi
5:53 PM64 °FSunny.10 mph70%29.95 "Hg10 mi
4:53 PM67 °FSunny.12 mph63%29.95 "Hg10 mi
3:53 PM68 °FSunny.9 mph61%29.96 "Hg10 mi
2:53 PM68 °FSunny.12 mph61%29.98 "Hg10 mi
Weather by CustomWeather, © 2015

See weather overviewHow to use our weather pages